Terminal Aerodrome Forecast
Issued by NWS Albany, NY

Home | Current Version | Previous Version | Text Only | Print | Product List | Glossary On
Versions: 1 2 3 4 5 6 7 8 9 10 11 12 13 14 15 16 17 18
000
FTUS41 KALY 011200 AAA
TAFALB
TAF AMD
KALB 011257Z 0113/0212 VRB03KT P6SM FEW004 BKN070
     FM011900 23007KT P6SM VCSH SCT050
     FM020000 18004KT P6SM SKC
     FM020500 18003KT 4SM BR SCT003
     FM020800 18003KT 2SM BR BKN003=

USA.gov is the U.S. government's official web portal to all federal, state and local government web resources and services.